Regional Weather Roundup
Issued by NWS

Home | Current Version | Previous Version | Graphics & Text | Print | Product List | Glossary On
Versions: 1 2 3 4 5 6 7 8 9 10 11 12 13 14 15 16 17 18 19 20 21 22 23 24 25 26 27 28 29 30 31 32 33 34 35 36 37 38 39 40 41 42 43 44 45 46 47 48 49 50
000
ASUS44 KMEG 301500
RWRTN
TENNESSEE HOURLY STATE WEATHER ROUNDUP
NATIONAL WEATHER SERVICE MEMPHIS TN
1000 AM CDT WED JUL 30 2014

TNZ002-004-019-021-049-052-054-088>092-301600-
WEST TENNESSEE

CITY           SKY/WX    TMP DP  RH WIND       PRES   REMARKS
MEMPHIS INTL   MOSUNNY   76  55  48 SW5       30.13S
NWS MEMPHIS      N/A     76 N/A N/A MISG        N/A
JACKSON        SUNNY     74  58  57 SE3       30.13S
DYERSBURG      SUNNY     75  55  50 CALM      30.14R
UNION CITY     SUNNY     70  61  73 CALM      30.12S
PARIS          SUNNY     70  55  60 CALM      30.14S
LEXINGTON      SUNNY     72  59  64 CALM      30.13S
SAVANNAH       SUNNY     72  63  73 CALM      30.13S
$$

TNZ008-025-027-028-033-062-065-066-301600-
NORTH MIDDLE TENNESSEE

CITY           SKY/WX    TMP DP  RH WIND       PRES   REMARKS
NASHVILLE      PTSUNNY   74  58  57 CALM      30.13S
CLARKSVILLE    PTSUNNY   74  55  51 NW5       30.13S
COOKEVILLE     SUNNY     70  59  68 CALM      30.13S
CROSSVILLE     SUNNY     70  53  54 NE9       30.16S
$$

TNZ061-075-076-078-094-096-097-301600-
SOUTH MIDDLE TENNESSEE

CITY           SKY/WX    TMP DP  RH WIND       PRES   REMARKS
FAYETTEVILLE   SUNNY     70  55  60 NE12      30.13S
WINCHESTER     SUNNY     72  55  56 VRB7      30.14R
MCMINNVILLE    SUNNY     70  61  73 NE5       30.14R
COLUMBIA       SUNNY     73  61  64 CALM      30.12S
SHELBYVILLE    SUNNY     73  61  64 N5        30.14R
$$

TNZ017-018-042-046-047-301600-
NORTHEAST TENNESSEE

CITY           SKY/WX    TMP DP  RH WIND       PRES   REMARKS
TRI CITIES     SUNNY     66  53  63 CALM      30.15F
ELIZABETHTON   SUNNY     66  54  63 CALM        N/A
$$

TNZ012-013-036-069-073-074-301600-
CENTRAL EAST TENNESSEE

CITY           SKY/WX    TMP DP  RH WIND       PRES   REMARKS
KNOXVILLE      MOSUNNY   70  57  63 NE9       30.11S
OAK RIDGE      SUNNY     71  55  56 VRB3      30.14S
GATLINBURG     SUNNY     68  54  60 CALM      30.13R
$$

TNZ083-085-099-301600-
SOUTHEAST TENNESSEE

CITY           SKY/WX    TMP DP  RH WIND       PRES   REMARKS
CHATTANOOGA    PTSUNNY   73  55  53 NE12      30.12R
$$

SKY/WX REPORTED AS FAIR MEANS FEW OR NO CLOUDS BELOW
12 THOUSAND FEET.




USA.gov is the U.S. government's official web portal to all federal, state and local government web resources and services.